Vorticity
nan nan nan nan nan nan nan nan nan nan nan nan nan nan nan nan nan nan nan nan nan nan nan nan nan nan nan nan nan nan nan nan nan nan nan nan nan nan nan nan nan nan nan nan nan nan nan nan nan nan nan nan nan nan nan nan nan nan nan nan nan nan nan nan nan nan nan nan nan
nan 9 10 10 9 8 9 9 9 9 9 9 9 9 8 7 8 8 9 9 8 8 8 8 9 8 8 8 9 9 9 8 9 9 10 10 10 10 9 9 9 9 8 9 9 10 9 10 10 10 9 8 8 9 9 8 8 7 7 9 11 9 7 5 5 6 9 10 nan
nan 10 10 10 10 9 9 9 9 9 9 9 9 9 9 8 8 9 9 9 9 8 8 9 9 9 8 9 9 9 9 8 8 9 9 9 10 10 9 9 9 9 10 10 9 9 8 9 10 9 8 8 7 8 9 8 8 8 7 8 10 10 9 5 5 8 10 7 nan
nan 11 11 11 10 9 8 8 9 9 9 9 10 10 9 9 9 9 9 9 9 10 9 8 8 9 9 9 9 9 8 8 9 9 9 9 9 10 10 9 9 10 10 10 9 9 9 10 11 9 8 7 8 8 8 8 8 9 8 7 8 8 9 7 7 8 8 6 nan
nan 11 12 11 10 9 8 9 9 9 10 10 10 10 9 9 9 8 8 9 10 9 9 8 8 9 9 9 9 9 9 9 9 9 8 8 9 10 9 9 9 10 10 10 10 10 10 11 12 10 9 8 8 8 7 7 9 11 10 8 6 7 8 8 8 8 7 7 nan
nan 11 12 12 11 11 11 11 10 10 10 9 8 9 9 9 9 8 8 8 8 9 10 10 10 9 9 9 9 9 9 10 9 9 8 8 9 9 9 9 10 10 10 10 10 10 10 11 11 10 9 9 9 8 7 8 10 11 10 8 7 7 7 7 8 7 6 4 nan
nan 11 11 12 12 12 12 12 12 11 10 8 6 8 9 9 8 8 8 8 9 10 12 12 11 10 9 9 9 9 9 10 10 9 8 8 8 8 8 9 10 10 10 10 10 10 10 10 9 9 9 10 10 9 8 9 9 9 9 9 9 7 7 7 7 6 4 3 nan
nan 10 11 12 11 11 11 12 12 12 10 8 6 7 9 9 9 10 10 11 11 11 11 11 10 10 9 8 8 9 9 9 9 9 9 8 8 8 9 9 9 10 10 10 9 9 10 10 9 9 9 9 9 8 8 8 8 8 8 9 10 9 8 7 6 5 4 5 nan
nan 10 10 11 11 11 11 11 11 11 10 9 8 9 10 11 11 12 12 11 10 10 11 10 10 10 9 9 9 9 9 9 9 9 9 8 8 8 9 8 8 10 11 10 9 9 10 10 9 9 9 8 8 7 7 7 7 8 8 9 9 9 9 8 6 6 6 5 nan
nan 10 10 10 10 11 10 9 9 9 9 9 9 10 11 12 13 13 11 10 10 10 10 10 10 9 9 9 10 10 10 9 9 9 9 8 9 9 9 8 8 9 10 10 10 10 10 9 9 9 9 8 8 8 8 7 7 7 9 9 8 8 9 9 8 8 8 7 nan
nan 10 10 9 10 10 9 9 8 8 8 9 10 10 11 11 12 11 11 10 10 10 10 10 9 9 9 10 10 10 10 10 9 9 8 8 9 9 9 9 8 8 9 10 11 10 9 8 8 8 9 9 9 9 9 8 7 7 9 8 7 7 9 9 9 8 8 8 nan
nan 8 9 9 10 10 9 9 8 7 7 9 10 10 10 10 10 10 11 10 9 10 11 11 10 9 9 9 10 10 11 10 9 8 8 9 10 10 9 9 9 9 10 11 11 10 8 7 7 7 9 10 11 10 9 8 7 7 8 8 7 6 6 7 8 9 9 8 nan
nan 8 9 10 11 11 9 9 9 7 6 8 9 9 9 9 10 11 11 10 9 10 10 10 11 10 10 9 10 10 10 10 9 8 8 9 10 10 10 9 9 10 10 12 11 9 8 7 6 6 8 10 11 10 10 9 8 7 7 7 7 6 5 6 8 9 9 8 nan
nan 9 9 10 10 10 8 8 8 7 5 7 8 9 9 9 10 11 11 10 9 10 10 10 11 10 10 10 10 10 10 10 9 8 8 9 10 9 9 10 10 10 11 11 11 9 7 7 7 7 7 8 10 11 11 10 8 7 7 7 6 6 6 7 8 7 7 7 nan
nan 9 10 10 9 9 8 8 8 6 6 7 8 9 10 9 10 11 11 10 10 11 10 10 10 10 11 11 11 11 11 10 9 8 8 9 10 9 9 9 10 10 10 11 11 10 8 8 8 8 7 8 9 10 11 10 9 8 8 7 6 6 6 7 7 7 7 7 nan
nan 9 9 9 9 9 8 8 8 6 6 7 8 9 9 9 9 9 9 11 12 12 9 9 11 11 11 11 12 12 11 10 8 8 8 9 9 8 8 9 9 10 10 10 10 10 10 10 9 8 8 7 8 9 10 10 10 9 9 8 8 7 7 7 8 8 8 7 nan
nan 8 8 8 8 9 9 9 9 7 7 7 8 9 9 9 9 8 9 11 11 10 8 9 12 12 11 11 12 11 11 10 8 8 8 8 8 8 8 9 9 10 10 9 9 10 11 11 11 10 9 8 9 9 10 10 10 10 10 9 9 9 8 8 9 8 8 7 nan
nan 8 8 7 6 7 8 9 9 8 7 7 8 9 9 8 8 9 9 10 9 8 8 10 12 11 10 10 11 10 10 9 8 8 8 9 8 8 8 9 10 10 10 9 8 8 9 11 11 10 10 9 9 10 10 10 10 10 10 10 10 10 10 10 10 9 8 6 nan
nan 7 8 7 6 7 7 8 8 8 8 8 8 9 9 9 9 9 9 9 9 9 9 10 11 11 10 10 10 10 10 9 8 9 9 9 9 8 8 9 10 10 10 9 9 9 9 10 10 10 10 9 9 10 10 10 9 10 10 10 11 11 11 11 11 10 9 7 nan
nan 7 8 7 7 7 7 7 8 8 9 9 8 8 9 9 9 8 8 9 10 10 9 8 9 9 9 9 9 10 11 10 9 9 10 10 9 9 9 9 10 11 10 10 9 9 9 10 10 10 9 9 8 9 9 9 9 9 10 10 11 11 12 12 12 11 10 9 nan
nan 8 8 8 8 8 8 8 8 9 9 9 8 9 9 9 8 8 8 10 11 11 9 8 7 8 8 8 9 10 12 11 10 9 9 9 9 10 10 10 10 10 10 9 9 9 9 10 10 10 10 10 9 9 9 8 8 9 10 10 10 11 12 13 12 11 10 9 nan
nan 8 8 8 8 9 9 9 10 10 10 9 9 8 8 8 8 9 10 11 11 11 10 8 8 8 9 9 9 10 11 12 10 10 9 9 9 10 10 10 9 8 8 9 10 10 11 12 12 12 12 11 10 10 9 9 9 9 9 9 10 11 12 13 13 12 11 10 nan
nan 8 9 9 9 9 10 11 11 11 10 9 8 8 8 8 8 9 10 11 10 10 9 9 9 9 10 10 9 9 10 10 9 9 9 9 9 9 11 10 8 7 8 10 10 10 11 13 14 14 13 11 10 10 10 10 10 9 9 9 10 11 12 13 13 13 12 11 nan
nan 9 9 9 9 9 10 10 10 10 9 9 9 8 8 8 8 9 9 9 8 9 10 10 10 10 11 11 10 9 8 8 8 9 9 9 10 10 10 10 9 8 9 8 4 5 9 13 14 14 13 12 11 12 12 11 10 10 9 9 9 10 11 12 12 12 12 12 nan
nan 9 9 9 9 10 10 9 9 9 9 9 9 8 8 8 8 8 8 8 8 9 10 11 11 12 11 11 10 10 8 7 7 7 7 8 9 10 11 11 10 9 8 -1 -6 -1 7 13 15 14 13 12 11 11 11 11 11 10 10 9 9 9 9 10 11 13 14 14 nan
nan 9 9 9 9 9 9 8 8 9 9 9 9 9 9 8 8 8 7 8 8 9 10 10 10 10 11 11 9 9 9 8 8 7 7 7 8 10 10 10 10 9 3 -7 -6 1 7 10 13 16 18 15 10 10 10 10 11 10 10 10 10 9 8 8 9 11 13 14 nan
nan 9 9 9 9 9 9 9 8 8 9 8 8 9 9 9 8 8 8 8 9 9 10 10 8 8 11 10 8 8 9 9 9 8 8 7 7 8 9 10 10 6 -4 -9 -3 4 8 9 10 14 20 18 12 11 9 9 9 10 11 11 10 10 9 8 8 9 10 12 nan
nan 9 9 9 9 9 9 9 8 8 9 9 9 9 8 8 8 8 9 9 9 10 10 10 10 10 10 8 7 7 9 9 9 9 9 8 8 8 9 9 6 -0 -8 -7 2 7 9 9 9 11 15 19 18 12 9 8 10 11 11 10 10 10 10 9 9 9 9 9 nan
nan 9 8 8 8 9 9 9 9 9 9 9 9 9 9 9 9 9 9 9 9 10 10 10 10 9 7 6 8 9 9 10 10 9 8 7 8 8 8 7 4 -2 -7 -2 6 8 9 9 8 9 10 19 22 15 12 10 10 10 9 9 9 9 9 9 9 9 9 9 nan
nan 9 8 8 8 9 9 9 9 9 9 9 9 9 9 9 9 10 10 11 10 10 9 9 8 7 6 8 9 9 9 9 9 8 7 6 7 7 7 8 6 1 -4 -1 6 7 8 8 8 9 9 17 22 18 14 11 10 9 8 8 7 7 8 9 9 9 9 8 nan
nan 9 8 8 8 9 10 10 10 10 10 9 9 9 8 9 10 11 11 12 10 9 9 9 8 8 9 10 9 9 8 9 9 8 7 6 6 8 8 8 6 2 -3 -1 4 6 7 7 8 9 9 16 23 20 15 11 10 9 8 7 6 7 8 9 10 9 9 8 nan
nan 8 7 7 8 10 11 11 11 10 10 9 9 8 8 9 10 11 11 10 9 9 9 8 8 9 10 10 10 9 8 8 8 8 7 8 9 9 8 8 8 4 -2 -1 4 5 6 7 8 9 8 16 24 21 16 11 10 9 8 8 8 8 8 8 8 8 9 9 nan
nan 8 6 6 8 10 11 12 11 10 9 9 9 9 9 10 10 10 10 10 10 10 9 8 8 8 9 10 9 8 8 8 8 8 9 10 9 8 7 10 10 3 -3 -1 4 6 7 7 8 8 8 18 26 22 15 11 10 9 8 8 9 10 10 8 8 8 9 10 nan
nan 7 6 7 8 10 11 11 10 10 9 8 9 9 9 9 9 10 10 10 11 10 10 9 9 10 10 9 8 8 8 9 9 10 10 10 9 7 8 10 6 -1 -4 -0 5 6 8 7 7 7 9 21 28 21 14 10 9 7 7 7 8 9 10 11 10 10 11 11 nan
nan 7 7 7 9 9 10 10 10 9 7 7 9 10 10 10 10 10 11 10 10 9 10 10 11 10 10 10 9 8 7 8 9 8 9 8 8 8 8 8 4 -2 -3 2 6 7 8 7 6 8 14 26 26 18 12 10 9 8 8 8 9 9 10 11 12 12 12 12 nan
nan 7 7 8 8 9 9 9 8 7 6 7 9 10 11 12 11 11 11 10 9 9 9 10 9 9 9 9 9 8 7 8 7 7 7 7 8 8 8 8 4 1 1 4 6 7 7 7 6 9 18 27 22 15 11 10 10 10 10 10 10 10 11 12 12 12 12 12 nan
nan 8 7 8 8 9 9 9 7 6 6 8 10 11 12 12 12 12 11 10 9 9 9 9 8 7 7 8 7 8 7 7 6 7 7 8 8 8 8 8 7 5 5 5 5 6 6 6 7 11 20 24 17 12 10 10 10 11 11 11 12 13 13 13 13 13 12 10 nan
nan 9 7 7 8 8 8 8 6 6 7 10 11 11 11 11 11 12 11 9 8 8 8 8 8 7 7 6 7 8 8 8 7 7 8 9 9 8 7 8 8 7 5 3 3 5 6 7 8 12 18 19 14 12 11 11 10 10 10 11 12 13 13 13 13 12 12 9 nan
nan 10 9 8 8 8 8 7 7 8 9 10 10 9 10 10 10 10 11 10 9 9 8 8 7 7 6 6 6 8 9 9 9 9 9 9 8 5 5 7 7 6 3 1 3 5 7 8 8 10 16 19 17 14 12 11 10 9 10 11 11 12 12 12 11 11 12 9 nan
nan 12 10 9 9 9 8 8 8 9 10 10 9 9 10 10 10 10 10 10 10 9 8 8 7 7 6 6 7 8 8 9 11 11 10 9 7 6 7 9 7 6 4 5 5 6 7 8 8 10 17 20 17 14 12 11 9 9 10 9 10 10 11 12 12 11 11 11 nan
nan nan nan nan nan nan nan nan nan nan nan nan nan nan nan nan nan nan nan nan nan nan nan nan nan nan nan nan nan nan nan nan nan nan nan nan nan nan nan nan nan nan nan nan nan nan nan nan nan nan nan nan nan nan nan nan nan nan nan nan nan nan nan nan nan nan nan nan nan
CAPE
nan nan nan nan nan nan nan nan nan nan nan nan nan nan nan nan nan nan nan nan nan nan nan nan nan nan nan nan nan nan nan nan nan nan nan nan nan nan nan nan nan nan nan nan nan nan nan nan nan nan nan nan nan nan nan nan nan nan nan nan nan 0 0 1 2 2 2 2 2
nan 0 0 0 0 0 0 nan nan nan nan nan nan nan nan nan nan nan nan nan nan nan nan nan nan nan nan nan nan nan nan nan nan nan nan nan nan nan nan nan nan nan nan nan nan nan nan nan nan nan nan nan nan nan nan nan nan nan nan nan nan nan nan 0 1 1 2 1 1
nan 0 0 0 0 0 0 nan nan nan nan nan nan nan nan nan nan nan nan nan nan nan nan nan nan nan nan nan nan nan nan nan nan nan nan nan nan nan nan nan nan nan nan nan nan nan nan nan nan nan nan nan nan nan nan nan nan nan nan nan nan nan nan nan 0 0 1 1 1
nan 0 0 0 0 0 nan nan nan nan nan nan nan nan nan nan nan nan nan nan nan nan nan nan nan nan nan nan nan nan nan nan nan nan nan nan nan nan nan nan nan nan nan nan nan nan nan nan nan nan nan nan nan nan nan nan nan nan nan nan nan nan nan nan 0 0 1 1 1
0 nan nan 0 nan nan nan nan nan nan nan nan nan nan nan nan nan nan nan nan nan nan nan nan nan nan nan nan nan nan nan nan nan nan nan nan nan nan nan nan nan nan nan nan nan nan nan nan nan nan nan nan nan nan nan nan nan nan nan nan nan nan nan nan 1 1 1 1 1
0 nan nan nan nan nan nan nan nan nan nan nan nan nan nan nan nan nan nan nan nan nan nan nan nan nan nan nan nan nan nan nan nan nan nan nan nan nan nan nan nan nan nan nan nan nan nan nan nan nan nan nan nan nan nan nan nan nan nan nan nan nan nan nan 1 1 1 1 1
0 nan nan nan 0 0 0 0 nan nan nan nan nan nan nan nan nan nan nan nan nan nan nan nan nan nan nan nan nan nan nan nan nan nan nan nan nan nan nan nan nan nan nan nan nan nan nan nan nan nan nan nan nan nan nan nan nan nan nan nan nan nan nan nan nan nan 1 1 1
nan nan nan nan nan nan 0 0 0 0 nan nan nan nan nan nan nan nan nan nan nan nan nan nan nan nan nan nan nan nan nan nan nan nan nan nan nan nan nan nan nan nan nan nan nan nan nan nan nan nan nan nan nan nan nan nan nan nan nan nan nan nan nan nan nan nan nan 0 0
nan nan nan nan nan nan 0 nan nan nan nan nan nan nan nan nan nan nan nan nan nan nan nan nan nan nan nan nan nan nan nan nan nan nan nan nan nan nan nan nan nan nan nan nan nan nan nan nan nan nan nan nan nan nan nan nan nan nan nan nan nan nan nan nan nan nan nan nan nan
nan nan nan nan nan nan nan nan nan nan nan nan nan nan nan nan nan nan nan nan nan nan nan nan nan nan nan nan nan nan nan nan nan nan nan nan nan nan nan nan nan nan nan nan nan nan nan nan nan nan nan nan nan nan nan nan nan nan nan nan nan nan nan nan nan nan nan nan nan
nan nan nan nan nan nan nan nan nan nan nan nan nan nan nan nan nan nan nan nan nan nan nan nan nan nan nan nan nan nan nan nan nan nan nan nan nan nan nan nan nan nan nan nan nan nan nan nan nan nan nan nan nan nan nan nan nan nan nan nan nan nan nan nan nan nan nan nan nan
nan nan nan nan nan nan nan nan nan nan nan nan nan nan nan nan nan nan nan nan nan nan nan nan nan nan nan nan nan nan nan nan nan nan nan nan nan nan nan nan nan nan nan nan nan nan nan nan nan nan nan nan nan nan nan nan nan nan nan nan nan nan nan nan nan nan nan nan nan
nan nan nan nan nan nan nan nan nan nan nan nan nan nan nan nan nan nan nan nan nan nan nan nan nan nan nan nan nan nan nan nan nan nan nan nan nan nan nan nan nan nan nan nan nan nan nan nan nan nan nan nan nan nan nan nan nan nan nan nan nan nan nan nan nan nan nan nan nan
nan nan nan nan nan nan nan nan nan nan nan nan nan nan nan nan nan nan nan nan nan nan nan nan nan nan nan nan nan nan nan nan nan nan nan nan nan nan nan nan nan nan nan nan nan nan nan nan nan nan nan nan nan nan nan nan nan nan nan nan nan nan nan nan nan nan nan nan nan
nan nan nan nan nan nan nan nan nan nan nan nan nan nan nan nan nan nan nan nan nan nan nan nan nan nan nan nan nan nan nan nan nan nan nan nan nan nan nan nan nan nan nan nan nan nan nan nan nan nan nan nan nan nan nan nan nan nan nan nan nan nan nan nan nan nan nan nan nan
nan nan nan nan nan nan nan nan nan nan nan nan nan nan nan nan nan nan nan nan nan nan nan nan nan nan nan nan nan nan nan nan nan nan nan nan nan nan nan nan nan nan nan nan nan nan nan nan nan nan nan nan nan nan nan nan nan nan nan nan nan nan nan nan nan nan nan nan nan
nan nan nan nan nan nan nan nan nan nan nan nan nan nan nan nan nan nan nan nan nan nan nan nan nan nan nan nan nan nan nan nan nan nan nan nan nan nan nan nan nan nan nan nan nan nan nan nan nan nan nan nan nan nan nan nan nan nan nan nan nan nan nan nan nan nan nan nan nan
nan nan nan nan nan nan nan nan nan nan nan nan nan nan nan nan nan nan nan nan nan nan nan nan nan nan nan nan nan nan nan nan nan nan nan nan nan nan nan nan nan nan nan nan nan nan nan nan nan nan nan nan nan nan nan nan nan nan nan nan nan nan nan nan nan nan nan nan nan
nan nan nan nan nan nan nan nan nan nan nan nan nan nan nan nan nan nan nan nan nan nan nan nan nan nan nan nan nan nan nan nan nan nan nan nan nan nan nan nan nan nan nan nan nan nan nan nan nan nan nan nan nan nan nan nan nan nan nan nan nan nan nan nan nan nan nan nan nan
nan nan nan nan nan nan nan nan nan nan nan nan nan nan nan nan nan nan nan nan nan nan nan nan nan nan nan nan nan nan nan nan nan nan nan nan nan nan nan nan nan nan nan nan nan nan nan nan nan nan nan nan nan nan nan nan nan nan nan nan nan nan nan nan nan nan nan nan nan
nan nan nan nan nan nan nan nan nan nan nan nan nan nan nan nan nan nan nan nan nan nan nan nan nan nan nan nan nan nan nan nan nan nan nan nan nan nan nan nan nan nan nan nan nan nan nan nan nan nan nan nan nan nan nan nan nan nan nan nan nan nan nan nan nan nan nan nan nan
nan nan nan nan nan nan nan nan nan nan nan nan nan nan nan nan nan nan nan nan nan nan nan nan nan nan nan nan nan nan nan nan nan nan nan nan nan nan nan nan nan nan nan nan nan nan nan nan nan nan nan nan nan nan nan nan nan nan nan nan nan nan nan nan nan nan nan nan nan
nan nan nan nan nan nan nan nan nan nan nan nan nan nan nan nan nan nan nan nan nan nan nan nan nan nan nan nan nan nan nan nan nan nan nan nan nan nan nan nan nan nan nan nan nan nan nan nan nan nan nan nan nan nan nan nan nan nan nan nan nan nan nan nan nan nan nan nan nan
nan nan nan nan nan nan nan nan nan nan nan nan nan nan nan nan nan nan nan nan nan nan nan nan nan nan nan nan nan nan nan nan nan nan nan nan nan nan nan nan nan nan nan nan nan nan nan nan nan nan nan nan nan nan nan nan nan nan nan nan nan nan nan nan nan nan nan nan nan
nan nan nan nan nan nan nan nan nan nan nan nan nan nan nan nan nan nan nan nan nan nan nan nan nan nan nan nan nan nan nan nan nan nan nan nan nan nan nan nan nan nan nan nan nan nan nan nan nan nan nan nan nan nan nan nan nan nan nan nan nan nan nan nan nan nan nan nan nan
nan nan nan nan nan nan nan nan nan nan nan nan nan nan nan nan nan nan nan nan nan nan nan nan nan nan nan nan nan nan nan nan nan nan nan nan nan nan nan nan nan nan nan nan nan nan nan nan nan nan nan nan nan nan nan nan nan nan nan nan nan nan nan nan nan nan nan nan nan
nan nan nan nan nan nan nan nan nan nan nan nan nan nan nan nan nan nan nan nan nan nan nan nan nan nan nan nan nan nan nan nan nan nan nan nan nan nan nan nan nan nan nan nan nan nan nan nan nan nan nan nan nan nan nan nan nan nan nan nan nan nan nan nan nan nan nan nan nan
nan nan nan nan nan nan nan nan nan nan nan nan nan nan nan nan nan nan nan nan nan nan nan nan nan nan nan nan nan nan nan nan nan nan nan nan nan nan nan nan nan nan nan nan nan nan nan nan nan nan nan nan nan nan nan nan nan nan nan nan nan nan nan nan nan nan nan nan nan
nan nan nan nan nan nan nan nan nan nan nan nan nan nan nan nan nan nan nan nan nan nan nan nan nan nan nan nan nan nan nan nan nan nan nan nan nan nan nan nan nan nan nan nan nan nan nan nan nan nan nan nan nan nan nan nan nan nan nan nan nan nan nan nan nan nan nan nan nan
nan nan nan nan nan nan nan nan nan nan nan nan nan nan nan nan nan nan nan nan nan nan nan nan nan nan nan nan nan nan nan nan nan nan nan nan nan nan nan nan nan nan nan nan nan nan nan nan nan nan nan nan nan nan nan nan nan nan nan nan nan nan nan nan nan nan nan nan nan
nan nan nan nan nan nan nan nan nan nan nan nan nan nan nan nan nan nan nan nan nan nan nan nan nan nan nan nan nan nan nan nan nan nan nan nan nan nan nan nan nan nan nan nan nan nan nan nan nan nan nan nan nan nan nan nan nan nan nan nan nan nan nan nan nan nan nan nan nan
nan nan nan nan nan nan nan nan nan nan nan nan nan nan nan nan nan nan nan nan nan nan nan nan nan nan nan nan nan nan nan nan nan nan nan nan nan nan nan nan nan nan nan nan nan nan nan nan nan nan nan nan nan nan nan nan nan nan nan nan nan nan nan nan nan nan nan nan nan
nan nan nan nan nan nan nan nan nan nan nan nan nan nan nan nan nan nan nan nan nan nan nan nan nan nan nan nan nan nan nan nan nan nan nan nan nan nan nan nan nan nan nan nan nan nan nan nan nan nan nan nan nan nan nan nan nan nan nan nan nan nan nan nan nan nan nan nan nan
nan nan nan nan nan nan nan nan nan nan nan nan nan nan nan nan nan nan nan nan nan nan nan nan nan nan nan nan nan nan nan nan nan nan nan nan nan nan nan nan nan nan nan nan nan nan nan nan nan nan nan nan nan nan nan nan nan nan nan nan nan nan nan nan nan nan nan nan nan
nan nan nan nan nan nan nan nan nan nan nan nan nan nan nan nan nan nan nan nan nan nan nan nan nan nan nan nan nan nan nan nan nan nan nan nan nan nan nan nan nan nan nan nan nan nan nan nan nan nan nan nan nan nan nan nan nan nan nan nan nan nan nan nan nan nan nan nan nan
nan nan nan nan nan nan nan nan nan nan nan nan nan nan nan nan nan nan nan nan nan nan nan nan nan nan nan nan nan nan nan nan nan nan nan nan nan nan nan nan nan nan nan nan nan nan nan nan nan nan nan nan nan nan nan nan nan nan nan nan nan nan nan nan nan nan nan nan nan
nan nan nan nan nan nan nan nan nan nan nan nan nan nan nan nan nan nan nan nan nan nan nan nan nan nan nan nan nan nan nan nan nan nan nan nan nan nan nan nan nan nan nan nan nan nan nan nan nan nan nan nan nan nan nan nan nan nan nan nan nan nan nan nan nan nan nan nan nan
nan nan nan nan nan nan nan nan nan nan nan nan nan nan nan nan nan nan nan nan nan nan nan nan nan nan nan nan nan nan nan nan nan nan nan nan nan nan nan nan nan nan nan nan nan nan nan nan nan nan nan nan nan nan nan nan nan nan nan nan nan nan nan nan nan nan nan nan nan
nan nan nan nan nan nan nan nan nan nan nan nan nan nan nan nan nan nan nan nan nan nan nan nan nan nan nan nan nan nan nan nan nan nan nan nan nan nan nan nan nan nan nan nan nan nan nan nan nan nan nan nan nan nan nan nan nan nan nan nan nan nan nan nan nan nan nan nan nan
nan nan nan nan nan nan nan nan nan nan nan nan nan nan nan nan nan nan nan nan nan nan nan nan nan nan nan nan nan nan nan nan nan nan nan nan nan nan nan nan nan nan nan nan nan nan nan nan nan nan nan nan nan nan nan nan nan nan nan nan nan nan nan nan nan nan nan nan nan
nan nan nan nan nan nan nan nan nan nan nan nan nan nan nan nan nan nan nan nan nan nan nan nan nan nan nan nan nan nan nan nan nan nan nan nan nan nan nan nan nan nan nan nan nan nan nan nan nan nan nan nan nan nan nan nan nan nan nan nan nan nan nan nan nan nan nan nan nan